Location: Banska Bystrica
(48.7333°N, 19.1500°E)
Time: 01:26:25
(UTC+02:00)

Daily predictions for brighter satellites

Satellite Brightness Start Highest point End
(mag) Time Altitude Azimuth Time Altitude Azimuth Time Altitude Azimuth
Cosmos 1943 Rocket 4.4 00:00:25 10° WNW 00:02:56 13° W 00:03:36 13° WSW
Cosmos 2082 Rocket 4.4 00:04:56 13° E 00:04:56 13° E 00:06:18 10° ENE
H-2A R/B 3.3 00:07:36 38° NE 00:07:36 38° NE 00:11:03 10° N
USA 238 DEB 3.6 00:08:38 57° SW 00:10:10 83° NW 00:17:12 10° NE
USA 238 3.6 00:08:46 58° SW 00:10:16 83° NW 00:17:19 10° NE
Cosmos 1452 Rocket 3.8 00:10:50 60° WNW 00:10:50 60° WNW 00:16:03 10° NNE
Cosmos 1656 4.2 00:08:24 10° NNW 00:13:39 48° NE 00:13:54 48° ENE
SeaSat 1 2.7 00:11:18 10° NNE 00:15:32 64° N 00:15:32 64° N
CZ-4 R/B 4.3 00:13:53 10° NNE 00:18:01 62° N 00:18:01 62° N
Cosmos 1634 Rocket 4.0 00:12:49 10° NNW 00:19:04 66° W 00:19:22 65° WSW
Meteor 1-15 Rocket 4.4 00:19:35 62° W 00:19:46 62° WNW 00:25:32 10° N
Meteor 1-24 Rocket 3.7 00:25:25 10° N 00:30:35 77° NNE 00:30:35 77° NNE
SL-19 R/B 4.4 00:26:01 10° NNE 00:31:51 77° WNW 00:32:02 76° W
USA 215 4.1 00:30:11 10° ENE 00:36:23 47° N 00:42:34 10° W
Meteor 2-20 Rocket 4.4 00:36:50 76° W 00:36:56 76° W 00:43:05 10° N
Cosmos 2180 Rocket 4.4 00:32:18 10° N 00:38:45 90° W 00:38:55 86° S
ALOS 2 4.1 00:42:40 30° NW 00:42:40 30° NW 00:45:20 10° NNW
Meteor 2-11 Rocket 4.3 00:36:00 10° N 00:42:11 82° E 00:42:11 82° E
Mayak 0.2 00:38:24 10° N 00:41:20 36° NNW 00:41:20 36° NNW
NOSS 3-2 (C) 3.3 00:48:11 87° ESE 00:48:11 87° ESE 00:54:56 10° NE
COSMOS 2406 3.3 00:52:02 71° NW 00:52:02 71° NW 00:57:42 10° NNE
Cosmos 1980 Rocket 3.2 00:47:19 10° NNW 00:52:41 40° NE 00:54:03 35° E
ADEOS Rocket 4.1 00:46:41 10° N 00:54:02 48° WNW 00:56:28 37° WSW
Cosmos 1110 Rocket 4.3 00:56:24 64° NNE 00:56:24 64° NNE 01:00:51 10° NNE
Cosmos 2322 Rocket 4.5 00:55:21 10° N 00:59:29 20° NE 01:03:38 10° E
Cosmos 1238 Rocket 4.2 00:57:15 10° N 01:00:39 43° N 01:00:39 43° N
Lacrosse 5 4.3 01:07:56 11° E 01:07:56 11° E 01:08:19 10° E
CZ-4C R/B 2.8 01:00:21 10° NW 01:07:26 83° SW 01:08:34 67° SSE
Cosmos 2344 3.5 01:07:54 64° S 01:08:56 73° SE 01:17:28 10° NE
Meteor 1-22 Rocket 4.4 01:12:19 68° W 01:12:23 68° WNW 01:18:29 10° N
ATLAS 3B R/B 3.3 01:12:50 34° W 01:15:38 52° NW 01:22:15 10° NE
Cosmos 1092 Rocket 4.0 01:18:17 65° ESE 01:18:29 66° E 01:24:34 10° NNE
CZ-4B R/B 4.1 01:15:59 10° N 01:19:55 47° NW 01:19:55 47° NW
CENTAUR R/B 2.4 01:21:02 77° SE 01:21:08 77° SE 01:28:14 10° NE
Cosmos 1833 Rocket 3.0 01:21:56 58° E 01:21:56 58° E 01:26:54 10° NNE
CZ-4B R/B 3.9 01:27:24 21° NE 01:27:24 21° NE 01:29:21 10° NNE
Cosmos 1302 Rocket 4.2 01:27:49 70° NNE 01:27:49 70° NNE 01:32:28 10° NNE
Cosmos 2369 4.4 01:27:37 10° NW 01:32:01 44° WNW 01:32:01 44° WNW
NOSS 3-2 (A) 4.3 01:30:52 33° W 01:33:15 47° NW 01:39:53 10° NE
Cosmos 1626 4.1 01:30:56 10° N 01:33:04 28° NNE 01:33:04 28° NNE
Cosmos 2278 4.2 01:29:11 10° NW 01:33:45 49° WNW 01:33:45 49° WNW
Nadezhda 4 Rocket 3.9 01:34:37 68° W 01:34:51 68° WNW 01:41:00 10° N
ASTEX 1 3.9 01:39:08 51° NW 01:39:08 51° NW 01:43:05 10° NNW
Cosmos 1697 Rocket 3.0 01:35:19 10° NNW 01:39:54 53° WNW 01:39:54 53° WNW
Landsat 5 4.4 01:41:35 49° NE 01:41:35 49° NE 01:45:25 10° N
Cosmos 1812 Rocket 4.5 01:42:09 45° NE 01:42:09 45° NE 01:45:40 10° NNE
Meteor 1-21 Rocket 4.2 01:35:29 10° NNW 01:41:11 76° W 01:41:11 76° W
Cosmos 1627 Rocket 4.5 01:41:39 66° SE 01:42:19 71° E 01:48:41 10° NNE
H-2A R/B 4.2 01:44:43 19° WNW 01:44:43 19° WNW 01:46:38 10° NW
Cosmos 2026 Rocket 4.0 01:44:54 64° SE 01:45:34 69° E 01:51:52 10° NNE
Cosmos 2082 Rocket 2.1 01:46:47 81° ESE 01:46:47 81° ESE 01:52:25 10° NNE
Cosmos 1553 Rocket 4.4 01:42:38 10° N 01:48:55 59° ENE 01:50:27 47° SE
Cosmos 2360 4.2 01:54:00 10° NNW 01:59:24 71° W 01:59:24 71° W
S3M 4.2 01:55:58 10° N 02:02:04 62° ENE 02:03:43 46° SE
Genesis I 4.4 02:03:33 42° NE 02:03:33 42° NE 02:06:20 10° NE
Cosmos 968 Rocket 3.4 02:02:07 10° NNW 02:06:55 78° NW 02:06:55 78° NW
Cosmos 1703 4.4 02:04:31 10° N 02:07:46 42° NE 02:07:46 42° NE
Cosmos 1992 Rocket 3.9 02:09:11 77° ESE 02:09:11 77° ESE 02:14:24 10° NNE
Cosmos 1953 3.7 02:11:43 33° NW 02:11:43 33° NW 02:14:27 10° N
Cosmos 1726 4.4 02:12:38 19° E 02:12:38 19° E 02:15:11 10° NE
SL-16 R/B 2.8 02:09:05 10° NNW 02:14:41 56° ENE 02:18:02 24° SE
Cosmos 1340 4.1 02:17:41 34° ENE 02:17:41 34° ENE 02:20:32 10° NNE
USA 215 4.2 02:12:34 10° E 02:18:43 46° N 02:24:52 10° WNW
CZ-2D R/B 2.9 02:13:37 10° NNE 02:18:45 42° E 02:19:53 37° SE
Meteor 1-16 Rocket 4.2 02:18:07 66° S 02:18:59 82° E 02:24:58 10° NNE
Cosmos 1470 4.4 02:21:48 28° NW 02:21:48 28° NW 02:24:20 10° N
SL-16 R/B 2.5 02:23:46 45° SSE 02:25:53 82° ENE 02:32:12 10° NNW
Spot 2 4.5 02:22:35 10° NNE 02:27:28 69° ESE 02:27:54 65° SE
Cosmos 1766 Rocket 4.0 02:23:30 10° N 02:27:48 56° ENE 02:28:06 54° E
COSMOS 2487 3.8 02:30:53 40° NE 02:30:53 40° NE 02:33:16 10° NNE
Cosmos 1655 Rocket 3.9 02:29:42 58° S 02:31:01 88° W 02:37:20 10° N
Cosmos 2360 Rocket 3.6 02:28:08 10° NNW 02:33:23 37° NE 02:38:37 10° ESE
Resurs 1-4 Rocket 2.5 02:29:03 10° NNE 02:34:14 56° E 02:35:21 47° SE
BREEZE-M R/B 3.0 02:35:38 48° E 02:35:38 48° E 02:38:50 10° E
CBERS-1 4.2 02:30:30 10° NNE 02:35:37 64° ESE 02:36:26 55° SSE
SL-8 R/B 3.8 02:37:08 65° ESE 02:37:08 65° ESE 02:41:14 10° ESE
Cosmos 1980 Rocket 2.9 02:31:26 10° NW 02:35:45 37° W 02:35:45 37° W
Aureole 2 Rocket 3.2 02:38:20 10° NNW 02:41:25 54° NNW 02:41:25 54° NNW
UNK 3.6 02:43:50 77° W 02:43:50 77° W 02:48:28 10° NNW
Cosmos 2322 Rocket 2.2 02:38:44 10° NNW 02:44:27 82° ENE 02:47:33 28° SSE
Cosmos 1908 3.6 02:46:56 60° E 02:46:56 60° E 02:50:43 10° NNE
Lacrosse 5 1.7 02:47:07 68° S 02:47:33 72° SE 02:52:36 10° ENE
Cosmos 2266 Rocket 4.0 02:51:08 41° S 02:53:23 77° E 02:59:28 10° NNE
CZ-4C R/B 4.2 02:49:54 10° WNW 02:53:42 21° W 02:53:42 21° W
Cosmos 1818 3.7 02:56:42 50° WSW 02:58:00 68° NW 03:03:29 10° NE
CZ-4B R/B 3.7 03:00:49 17° NW 03:00:49 17° NW 03:01:59 10° NW
Meteor 1-11 4.3 02:53:55 10° NNW 02:59:19 51° W 02:59:58 48° WSW
NPP 3.6 02:54:39 10° NNE 03:00:03 75° WNW 03:01:22 52° SW
IRS-1C 4.1 02:56:39 10° NNE 03:02:02 79° ESE 03:03:44 45° S
Cosmos 1346 Rocket 4.0 03:02:56 31° WNW 03:02:56 31° WNW 03:06:11 10° N
Cosmos 332 Rocket 3.7 03:02:34 59° S 03:03:30 84° ESE 03:08:24 10° NNE
H-2A R/B 2.9 02:59:25 10° NNE 03:03:51 63° ESE 03:04:56 46° SSE
Meteor 2-1 Rocket 4.5 03:02:52 33° SSE 03:05:24 65° E 03:11:00 10° NNE
Cosmos 1833 Rocket 4.0 03:03:37 23° W 03:05:42 28° NW 03:10:33 10° NNE
Cosmos 1408 Rocket 3.4 03:01:54 10° NNW 03:06:15 76° W 03:06:40 69° SSW
Okean 3 Rocket 4.4 03:02:52 10° NNW 03:06:27 36° WNW 03:06:27 36° WNW
Cosmos 2315 Rocket 4.0 03:01:20 10° N 03:07:34 82° E 03:11:34 24° SSE
BREEZE-M DEB (TANK) 2.2 03:08:29 62° ENE 03:08:29 62° ENE 03:12:32 10° E
Cosmos 1743 Rocket 3.9 03:06:44 10° N 03:11:02 62° ENE 03:13:03 30° SSE
CENTAUR R/B 3.8 03:08:12 18° W 03:12:31 37° NNW 03:19:21 10° NE
Cosmos 1500 Rocket 4.2 03:08:55 10° N 03:13:18 55° ENE 03:16:06 21° SSE
BREEZE-M DEB (TANK) 2.6 03:13:27 71° SSW 03:13:42 77° SSE 03:16:16 10° ENE
SL-08 R/B 3.6 03:14:11 47° WSW 03:14:32 47° W 03:19:18 10° NNW
Cosmos 883 Rocket 4.4 03:10:58 10° NNW 03:17:05 68° W 03:19:49 34° SSW
IRS-1D 3.5 03:12:29 10° NNE 03:17:40 84° WNW 03:19:32 42° SSW
Cosmos 2058 2.9 03:13:49 10° NNW 03:18:00 61° W 03:18:16 59° WSW
Cosmos 2219 Rocket 4.2 03:16:30 10° NNW 03:21:28 30° NE 03:26:25 10° ESE
UNKNOWN OBJECT B 3.8 03:18:03 10° NNE 03:21:33 37° E 03:23:00 26° SE
Spot 4 Rocket 4.1 03:16:44 10° NNE 03:21:56 77° ESE 03:24:14 34° S
Timation 2 Rocket 4.2 03:19:09 32° SSW 03:22:28 75° ESE 03:29:20 10° NNE
deb Kosmos-1763 4.1 03:22:39 61° W 03:22:53 63° WNW 03:26:39 10° NNE
Cosmos 405 4.3 03:20:09 10° N 03:23:28 38° ENE 03:26:05 14° SE
ADEOS II 3.1 03:20:28 10° NNE 03:25:26 41° E 03:29:33 14° SSE
Cosmos-2242 3.4 03:26:49 44° W 03:27:22 46° WNW 03:31:32 10° N
Cosmos 2082 Rocket 3.8 03:28:37 16° W 03:31:28 24° NW 03:36:00 10° N
Cosmos 1842 Rocket 3.7 03:30:07 33° S 03:32:03 75° E 03:36:34 10° NNE
COSMOS 2455 3.7 03:28:39 21° S 03:32:17 44° ESE 03:37:57 10° NE
Cosmos 2322 4.0 03:30:25 10° NNW 03:36:07 71° ENE 03:41:45 10° SE
MOZ.5/SAFIR/RUBIN 5/SL-8 4.5 03:38:58 33° WSW 03:39:27 34° W 03:43:48 10° NNW
Cosmos 1300 2.6 03:40:42 38° S 03:42:04 84° E 03:45:55 10° N
CZ-2D R/B 3.6 03:38:19 10° NNE 03:42:34 74° ESE 03:44:52 27° S
In-Cosmos 22 Rocket 4.3 03:36:59 10° N 03:42:34 78° ENE 03:47:59 10° SSE
Cosmos 2237 4.3 03:37:21 10° NNW 03:43:06 82° ENE 03:48:48 10° SSE
ARIANE 5 R/B 2.6 03:38:26 10° N 03:43:40 70° WNW 03:46:18 30° SSW
Cosmos 371 Rocket 3.9 03:43:56 31° WSW 03:45:42 45° WNW 03:50:25 10° NNE
Cosmos 1726 2.9 03:47:12 33° W 03:47:34 34° WNW 03:50:58 10° N
Cosmos 2084 3.0 03:44:58 10° NW 03:48:53 73° SW 03:52:44 10° SE
PSLV R/B 4.3 03:48:31 37° SW 03:49:16 41° W 03:53:11 10° NNW
Nadezhda 2 Rocket 4.4 03:47:04 23° SSW 03:50:58 75° W 03:57:08 10° N
Cosmos 1892 3.6 03:49:01 10° N 03:52:46 50° ENE 03:56:30 10° SSE
Cosmos 1340 4.3 03:52:29 19° WNW 03:52:49 19° WNW 03:55:37 10° NNW
Cosmos 1244 Rocket 4.4 03:51:43 19° SSW 03:56:26 82° W 04:02:40 10° N
SJ 16-02 4.3 03:53:23 10° N 03:56:34 19° NE 03:59:42 10° E
Cosmos 2151 3.8 03:53:03 10° NNW 03:56:55 32° W 03:57:47 30° WSW
BREEZE-M DEB (TANK) 2.6 03:51:46 10° W 03:57:25 85° N 03:59:57 10° E
SL-16 R/B 3.1 03:53:44 10° NW 03:58:27 28° WSW 03:59:47 25° SW
CZ-2D R/B 3.1 03:53:53 10° N 03:58:42 34° WNW 04:01:12 22° WSW
USA 215 3.4 03:54:48 10° ESE 04:01:19 77° NNE 04:07:52 10° NW
Sich 1 4.1 03:58:28 10° N 04:02:37 46° ENE 04:06:44 10° SSE
Cosmos 1833 4.2 04:04:46 20° SSW 04:08:46 87° ESE 04:14:27 10° NNE
SL-16 R/B 3.8 04:08:52 18° WSW 04:10:16 20° W 04:14:39 10° NW
Resurs 1-4 Rocket 3.4 04:09:31 10° N 04:13:45 25° WNW 04:16:25 17° W
Helios 1A Rocket 2.9 04:11:03 10° NNE 04:15:15 87° ESE 04:18:43 14° SSW
ADEOS 3.5 04:10:35 10° NNE 04:15:48 75° WNW 04:20:12 15° SSW
Tiangong 2 2.5 04:16:34 22° SSW 04:17:21 24° S 04:20:00 10° ESE
Cosmos 2360 Rocket 2.5 04:12:08 10° NW 04:17:30 44° WSW 04:22:50 10° S
Cosmos 405 Rocket 3.7 04:14:16 10° S 04:18:06 48° E 04:22:02 10° NNE
SL-8 R/B 4.2 04:15:10 15° W 04:18:42 37° SSW 04:23:05 10° SE
SAR-Lupe-2 3.6 04:16:35 11° S 04:19:54 54° W 04:23:27 10° NNW
Okean O Rocket 4.4 04:17:46 10° NE 04:20:32 16° E 04:23:16 10° SE
Cosmos 2221 2.5 04:17:58 18° SSW 04:21:04 62° WNW 04:25:19 10° N
Cosmos 304 Rocket 4.1 04:19:34 20° SW 04:22:38 50° WNW 04:27:20 10° NNE
Iridium 4 Rocket 4.5 04:17:36 10° NNW 04:22:54 37° W 04:27:09 15° SW
Cosmos 1633 Rocket 3.7 04:21:01 10° N 04:25:20 57° ENE 04:29:38 10° SSE
Cosmos 1898 Rocket 3.4 04:20:19 10° NNW 04:25:32 73° WSW 04:30:42 10° SSE
Cosmos 2322 Rocket 3.6 04:24:06 10° WNW 04:27:47 18° W 04:29:14 16° WSW
Nadezhda 1 Rocket 3.9 04:22:01 10° NNW 04:28:11 78° W 04:34:23 10° S
Cosmos 1441 Rocket 3.1 04:25:03 11° S 04:28:36 90° ENE 04:32:28 10° NNE
COSMOS 2428 2.7 04:24:41 10° NNW 04:30:27 82° WSW 04:36:11 10° SSE
Lacrosse 5 2.8 04:26:19 11° W 04:30:50 41° NNW 04:35:39 10° NE
Meteor 1-28 Rocket 3.9 04:29:46 10° SSE 04:33:30 57° ENE 04:37:15 10° N
Atlas Centaur 2 4.3 04:33:36 10° SSW 04:35:42 12° S 04:37:39 10° SSE
Cosmos 2333 4.2 04:31:29 10° NNW 04:37:14 66° WSW 04:42:55 10° SSE
Cosmos 2333 Rocket 2.4 04:32:09 10° NNW 04:37:58 83° ENE 04:43:43 10° SSE
H-2A R/B 4.4 04:35:52 10° NNW 04:38:55 19° WNW 04:41:31 12° W
Meteor 1-4 Rocket 4.5 04:36:34 10° N 04:39:46 32° ENE 04:42:58 10° SE
Cosmos 1408 3.1 04:36:20 10° N 04:40:03 65° E 04:43:46 10° SSE
Cosmos 2208 Rocket 4.1 04:35:04 10° SSW 04:40:31 87° WNW 04:46:01 10° NNE
Cosmos 1937 Rocket 3.5 04:38:23 10° NNW 04:43:43 71° WSW 04:48:59 10° SSE
Cosmos 1805 Rocket 3.8 04:40:44 10° NNW 04:44:53 45° W 04:49:01 10° SSW
BREEZE-M DEB (TANK) 3.8 04:41:18 14° WSW 04:44:58 69° SSE 04:58:10 10° E
Cosmos 2237 Rocket 3.1 04:41:40 10° NNW 04:47:16 56° ENE 04:52:48 10° SE
Cosmos 1455 2.2 04:48:28 10° SSW 04:52:20 70° WNW 04:56:14 10° N
Cosmos 1980 4.2 04:48:18 10° NNW 04:53:58 66° ENE 04:59:37 10° SE
Cosmos 841 Rocket 4.3 04:49:02 10° S 04:54:01 53° ESE 04:59:02 10° NNE
UNKNOWN OBJECT B 4.3 04:53:05 10° NNW 04:55:48 19° WNW 04:58:25 10° WSW
Cosmos 990 Rocket 4.1 04:51:19 10° NNW 04:56:22 53° WSW 05:01:21 10° S
USA 229 DEB 3.8 04:50:40 10° SW 04:57:24 89° SE 05:04:25 10° NE
USA 229 3.8 04:50:47 10° SW 04:57:31 88° SE 05:04:31 10° NE
NOSS 3-1 (A) 4.4 04:52:43 10° S 04:58:05 44° ESE 05:04:10 10° NE
GENESIS II 4.5 04:58:50 10° SW 05:02:39 58° NW 05:06:34 10° NNE
Cosmos 1814 Rocket 4.2 04:58:05 10° SSW 05:03:17 78° ESE 05:08:28 10° NNE
ADEOS II 3.0 05:00:24 10° N 05:05:04 33° WNW 05:09:42 10° SW
Cosmos 2219 Rocket 2.3 05:00:13 10° NW 05:05:47 59° WSW 05:11:21 10° S
Cosmos 292 Rocket 3.8 05:01:17 10° SSW 05:06:08 82° WNW 05:11:02 10° NNE
Cosmos 1151 Rocket 3.8 05:02:27 10° S 05:06:39 57° E 05:10:55 10° NNE
Cosmos 1763 Rocket 3.5 05:02:10 10° SSW 05:07:15 85° WNW 05:12:25 10° NNE
Cosmos 2181 Rocket 4.1 05:04:07 10° N 05:10:35 86° W 05:17:02 10° S
PSLV R/B 3.7 05:07:52 10° NNE 05:11:38 85° ESE 05:15:19 10° SSW
MOS 1-B 4.5 05:07:17 10° NNE 05:13:07 87° ESE 05:18:57 10° SSW
Shenzhou-11 Module 4.2 05:13:15 10° SW 05:13:54 11° SSW 05:14:33 10° SSW
Meteor 1-27 4.3 05:08:13 10° SSW 05:13:58 71° WNW 05:19:41 10° N
Intercosmos 25 Rocket 3.5 05:11:36 10° NNW 05:15:10 72° W 05:20:28 10° S
Cosmos 2298 Rocket 4.2 05:11:13 10° NNW 05:16:24 52° WSW 05:21:33 10° S
COSMOS 2455 3.5 05:12:32 10° WSW 05:18:16 44° NW 05:24:02 10° NNE
